PulseSat

PulseSat

COSMOS 2464 (736)

Last updated on March 21, 2019, 3:13 a.m. UTC

1 37139U 10041C   19078.38769787  .00000044  00000-0  00000-0 0  9997
2 37139  64.3661 281.7384 0026512  15.4899 167.9461  2.13100678 66482
UTC
Height (km)
Latitude
Longitude
Inclination
Orbital Period

Next 30 passes for location: Hong Kong

Rise time Rise Azimuth (degrees) Set time Set Azimuth (degrees) Duration Max altitude (degrees)

No matching passes for this satellites

PulseSat

PulseSat is the new satellites software and hardware trackering solution by Pulsely.
Satellite Two Line Element Set source: US Air Force Space Command

Download PulseSat for iOS
© 2017 Pulsely Limited